Weather History for Saratoga Shively Field Airpor, WY

Change the Weather History Date:

Sunday, January 12, 2014

  Actual Average Record
Temperature  
Mean Temperature 27 °F -  
Max Temperature 35 °F 33 °F 41 °F (2015)
Min Temperature 19 °F 8 °F 19 °F (2014)
Degree Days  
Heating Degree Days 38    
Moisture  
Dew Point 19 °F    
Average Humidity 75    
Maximum Humidity 93    
Minimum Humidity 64    
Precipitation  
Precipitation 0.00 in - - ()
Sea Level Pressure  
Sea Level Pressure 29.81 in    
Wind  
Wind Speed 24 mph (WSW)    
Max Wind Speed 34 mph    
Max Gust Speed 47 mph    
Visibility 9 miles    
Events Snow    
Averages and records for this station are not official NWS values.
T = Trace of Precipitation, MM = Missing Value Source: NWS Daily Summary

Daily Weather History Graph

Daily Weather History Graph

Search for Another Location

Airport:

Trip Planner

Search our weather history database for the weather conditions in past years. The results will help you decide how hot, cold, wet, or windy it might be!

Date:

Astronomy

Jan. 12, 2014 Rise Set
Actual Time 7:32 AM MST 4:59 PM MST
Civil Twilight 7:01 AM MST 5:30 PM MST
Nautical Twilight 6:27 AM MST 6:04 PM MST
Astronomical Twilight 5:54 AM MST 6:37 PM MST
Moon 2:29 PM MST (1/12) 4:33 AM MST (1/12)
Length of Visible Light 10h 28m
Length of Day
9h 27m
Waxing Gibbous, 90% of the Moon is Illuminated
Jan 12
Waxing Gibbous
Jan 15
Full
Jan 23
Last Quarter
Jan 30
New
Feb 6
First Quarter

Hourly Weather History & Observations

Time (MST) Temp. Windchill Dew Point Humidity Pressure Visibility Wind Dir Wind Speed Gust Speed Precip Events Conditions
12:15 AM 35.6 °F 24.0 °F 24.8 °F 65% 29.68 in 10.0 mi WSW 23.0 mph 35.7 mph N/A   Scattered Clouds
12:35 AM 35.6 °F 23.2 °F 24.8 °F 65% 29.66 in 10.0 mi SW 26.5 mph 35.7 mph N/A   Scattered Clouds
12:55 AM 35.6 °F 24.5 °F 24.8 °F 65% 29.66 in 10.0 mi SW 20.7 mph 29.9 mph N/A   Clear
1:15 AM 35.6 °F 23.7 °F 24.8 °F 65% 29.64 in 10.0 mi SW 24.2 mph 33.4 mph N/A   Scattered Clouds
1:35 AM 35.6 °F 23.0 °F 24.8 °F 65% 29.63 in 10.0 mi SW 27.6 mph 39.1 mph N/A   Scattered Clouds
1:55 AM 35.6 °F 23.2 °F 24.8 °F 65% 29.64 in 10.0 mi SW 26.5 mph 36.8 mph N/A   Mostly Cloudy
2:15 AM 35.6 °F 23.2 °F 24.8 °F 65% 29.65 in 10.0 mi SW 26.5 mph 34.5 mph N/A   Overcast
2:35 AM 35.6 °F 22.5 °F 26.6 °F 70% 29.65 in 7.0 mi SW 29.9 mph 39.1 mph N/A Snow Light Snow
2:55 AM 32.0 °F 18.6 °F 30.2 °F 93% 29.68 in 4.0 mi WSW 25.3 mph 32.2 mph N/A Snow Light Snow
3:15 AM 30.2 °F 16.2 °F 28.4 °F 93% 29.70 in 0.2 mi West 25.3 mph 36.8 mph N/A Snow Snow
3:35 AM 30.2 °F 18.1 °F 26.6 °F 86% 29.71 in 3.0 mi West 18.4 mph 25.3 mph N/A Snow Light Snow
3:55 AM 28.4 °F 15.8 °F 26.6 °F 93% 29.70 in 3.0 mi West 18.4 mph 21.9 mph N/A Snow Light Snow
4:15 AM 28.4 °F 15.1 °F 26.6 °F 93% 29.70 in 5.0 mi West 20.7 mph 29.9 mph N/A Snow Light Snow
4:35 AM 28.4 °F 15.8 °F 26.6 °F 93% 29.67 in 10.0 mi West 18.4 mph 25.3 mph N/A Snow Light Snow
4:55 AM 28.4 °F 15.1 °F 24.8 °F 86% 29.67 in 10.0 mi WSW 20.7 mph 26.5 mph N/A   Overcast
5:15 AM 28.4 °F 15.8 °F 24.8 °F 86% 29.67 in 10.0 mi WSW 18.4 mph 24.2 mph N/A   Overcast
5:35 AM 28.4 °F 14.4 °F 23.0 °F 80% 29.67 in 10.0 mi WSW 23.0 mph 27.6 mph N/A   Overcast
5:55 AM 28.4 °F 16.2 °F 23.0 °F 80% 29.68 in 10.0 mi West 17.3 mph 25.3 mph N/A   Overcast
6:15 AM 28.4 °F 15.4 °F 23.0 °F 80% 29.69 in 10.0 mi West 19.6 mph 24.2 mph N/A   Overcast
6:35 AM 28.4 °F 17.0 °F 23.0 °F 80% 29.70 in 10.0 mi West 15.0 mph 19.6 mph N/A   Overcast
6:55 AM 26.6 °F 15.7 °F 23.0 °F 86% 29.70 in 10.0 mi West 12.7 mph 16.1 mph N/A   Overcast
7:15 AM 26.6 °F 15.7 °F 23.0 °F 86% 29.70 in 10.0 mi West 12.7 mph 17.3 mph N/A   Overcast
7:35 AM 26.6 °F 14.7 °F 21.2 °F 80% 29.72 in 10.0 mi WSW 15.0 mph 19.6 mph N/A   Overcast
7:55 AM 26.6 °F 14.7 °F 21.2 °F 80% 29.73 in 10.0 mi West 15.0 mph 21.9 mph N/A   Overcast
8:15 AM 26.6 °F 15.2 °F 21.2 °F 80% 29.74 in 10.0 mi WSW 13.8 mph 23.0 mph N/A   Overcast
8:35 AM 26.6 °F 14.7 °F 21.2 °F 80% 29.76 in 10.0 mi West 15.0 mph 21.9 mph N/A   Overcast
8:55 AM 26.6 °F 13.8 °F 21.2 °F 80% 29.78 in 10.0 mi West 17.3 mph 23.0 mph N/A   Overcast
9:15 AM 26.6 °F 11.4 °F 19.4 °F 74% 29.78 in 10.0 mi West 25.3 mph 31.1 mph N/A   Mostly Cloudy
9:35 AM 26.6 °F 10.8 °F 19.4 °F 74% 29.78 in 10.0 mi West 27.6 mph 34.5 mph N/A   Scattered Clouds
9:55 AM 26.6 °F 11.4 °F 19.4 °F 74% 29.79 in 10.0 mi West 25.3 mph 29.9 mph N/A   Clear
10:15 AM 26.6 °F 12.0 °F 19.4 °F 74% 29.80 in 10.0 mi West 23.0 mph 32.2 mph N/A   Clear
10:35 AM 26.6 °F 12.4 °F 17.6 °F 69% 29.80 in 10.0 mi WSW 21.9 mph 32.2 mph N/A   Clear
10:55 AM 26.6 °F 10.8 °F 19.4 °F 74% 29.81 in 10.0 mi West 27.6 mph 34.5 mph N/A   Clear
11:15 AM 26.6 °F 10.6 °F 19.4 °F 74% 29.79 in 10.0 mi WSW 28.8 mph 38.0 mph N/A   Clear
11:35 AM 26.6 °F 10.3 °F 17.6 °F 69% 29.79 in 10.0 mi WSW 29.9 mph 39.1 mph N/A   Clear
11:55 AM 26.6 °F 9.8 °F 17.6 °F 69% 29.78 in 10.0 mi West 32.2 mph 42.6 mph N/A   Clear
12:15 PM 26.6 °F 10.8 °F 19.4 °F 74% 29.80 in 10.0 mi West 27.6 mph 38.0 mph N/A   Clear
12:35 PM 26.6 °F 10.6 °F 19.4 °F 74% 29.79 in 5.0 mi West 28.8 mph 38.0 mph N/A Snow Light Snow
12:55 PM 26.6 °F 10.0 °F 17.6 °F 69% 29.77 in 10.0 mi West 31.1 mph 43.7 mph N/A Snow Light Snow
1:15 PM 28.4 °F 11.8 °F 17.6 °F 64% 29.77 in 10.0 mi West 34.5 mph 47.2 mph N/A   Mostly Cloudy
1:35 PM 26.6 °F 9.3 °F 17.6 °F 69% 29.78 in 10.0 mi West 34.5 mph 46.0 mph N/A   Scattered Clouds
1:55 PM 26.6 °F 9.8 °F 17.6 °F 69% 29.78 in 10.0 mi West 32.2 mph 44.9 mph N/A   Clear
2:15 PM 28.4 °F 12.7 °F 17.6 °F 64% 29.80 in 10.0 mi West 29.9 mph 43.7 mph N/A   Clear
2:35 PM 26.6 °F 9.8 °F 17.6 °F 69% 29.81 in 10.0 mi West 32.2 mph 41.4 mph N/A   Clear
2:56 PM 26.6 °F 9.6 °F 17.6 °F 69% 29.82 in 10.0 mi West 33.4 mph 42.6 mph N/A   Clear
3:15 PM 26.6 °F 11.4 °F 17.6 °F 69% 29.84 in 10.0 mi West 25.3 mph 38.0 mph N/A   Clear
3:35 PM 26.6 °F 10.8 °F 15.8 °F 64% 29.85 in 10.0 mi West 27.6 mph 42.6 mph N/A   Clear
3:55 PM 26.6 °F 12.0 °F 15.8 °F 64% 29.87 in 10.0 mi West 23.0 mph 35.7 mph N/A   Clear
4:15 PM 24.8 °F 8.7 °F 15.8 °F 69% 29.88 in 10.0 mi West 26.5 mph 41.4 mph N/A   Clear
4:35 PM 23.0 °F 7.2 °F 15.8 °F 74% 29.87 in 10.0 mi West 23.0 mph 34.5 mph N/A   Clear
4:55 PM 23.0 °F 6.6 °F 14.0 °F 68% 29.89 in 10.0 mi West 25.3 mph 29.9 mph N/A   Clear
5:15 PM 23.0 °F 8.0 °F 14.0 °F 68% 29.90 in 10.0 mi West 20.7 mph 29.9 mph N/A   Clear
5:35 PM 23.0 °F 6.6 °F 14.0 °F 68% 29.90 in 10.0 mi West 25.3 mph 31.1 mph N/A   Clear
5:55 PM 23.0 °F 7.2 °F 14.0 °F 68% 29.91 in 10.0 mi West 23.0 mph 33.4 mph N/A   Scattered Clouds
6:15 PM 23.0 °F 6.0 °F 14.0 °F 68% 29.92 in 10.0 mi West 27.6 mph 34.5 mph N/A   Mostly Cloudy
6:35 PM 21.2 °F 3.9 °F 14.0 °F 74% 29.93 in 10.0 mi West 26.5 mph 35.7 mph N/A   Scattered Clouds
6:55 PM 21.2 °F 4.5 °F 14.0 °F 74% 29.93 in 10.0 mi West 24.2 mph 32.2 mph N/A   Scattered Clouds
7:15 PM 21.2 °F 3.9 °F 14.0 °F 74% 29.94 in 10.0 mi West 26.5 mph 32.2 mph N/A   Scattered Clouds
7:35 PM 21.2 °F 4.5 °F 14.0 °F 74% 29.95 in 10.0 mi West 24.2 mph 31.1 mph N/A   Clear
7:55 PM 19.4 °F 3.2 °F 14.0 °F 80% 29.96 in 10.0 mi WSW 20.7 mph 27.6 mph N/A   Clear
8:15 PM 19.4 °F 1.8 °F 14.0 °F 80% 29.97 in 10.0 mi WSW 25.3 mph 31.1 mph N/A   Clear
8:35 PM 19.4 °F 2.5 °F 14.0 °F 80% 29.96 in 10.0 mi WSW 23.0 mph 32.2 mph N/A   Clear
8:55 PM 19.4 °F 2.1 °F 14.0 °F 80% 29.97 in 10.0 mi WSW 24.2 mph 33.4 mph N/A   Clear
9:15 PM 21.2 °F 4.2 °F 14.0 °F 74% 29.97 in 10.0 mi West 25.3 mph 33.4 mph N/A   Clear
9:35 PM 21.2 °F 4.5 °F 14.0 °F 74% 29.98 in 10.0 mi WSW 24.2 mph 31.1 mph N/A   Clear
9:55 PM 19.4 °F 2.8 °F 14.0 °F 80% 29.98 in 10.0 mi WSW 21.9 mph 28.8 mph N/A   Clear
10:15 PM 19.4 °F 1.8 °F 14.0 °F 80% 29.98 in 10.0 mi West 25.3 mph 32.2 mph N/A   Clear
10:35 PM 19.4 °F 1.8 °F 14.0 °F 80% 29.99 in 10.0 mi West 25.3 mph 32.2 mph N/A   Clear
10:55 PM 21.2 °F 4.5 °F 14.0 °F 74% 30.00 in 10.0 mi West 24.2 mph 33.4 mph N/A   Clear
11:15 PM 21.2 °F 4.9 °F 14.0 °F 74% 30.00 in 10.0 mi WSW 23.0 mph 39.1 mph N/A   Clear
11:35 PM 19.4 °F 1.1 °F 14.0 °F 80% 30.00 in 10.0 mi West 27.6 mph 35.7 mph N/A   Clear
11:55 PM 21.2 °F 3.5 °F 14.0 °F 74% 29.99 in 10.0 mi West 27.6 mph 39.1 mph N/A   Clear